Miscellaneous Local Product
Issued by NWS North Platte, NE

Home | Current Version | Previous Version | Text Only | Print | Product List | Glossary On
Versions: 1 2 3 4 5 6 7 8 9 10 11 12 13 14 15 16 17 18 19 20 21 22 23 24 25 26 27 28 29 30 31 32 33 34 35 36 37 38 39 40 41 42 43 44 45 46 47 48 49 50
000
AXUS43 KLBF 180310
MISLBF


WESTERN AND NORTH CENTRAL NEBRASKA HOURLY WEATHER ROUNDUP
NATIONAL WEATHER SERVICE NORTH PLATTE NE
1000 PM CDT THU APR 17 2014

***STATIONS NOT REPORTING VARIABLES SUCH AS SKY/WEATHER OR
PRESSURE ARE PROVIDED BY THE NEBRASKA DEPARTMENT OF
ROADS...RAWS...AND APRS NETWORKS...AND ARE NOT UNDER
NATIONAL WEATHER SERVICE QUALITY CONTROL***

...OBSERVATIONS IN AND NEAR THE EASTERN PANHANDLE OF NEBRASKA...

CITY           SKY/WX    TMP DP  RH WIND       PRES   REMARKS
PINE RIDGE     MOCLDY    49  35  58 S13       29.99S
CHADRON        PTCLDY    49  37  63 SE15      29.96S
ALLIANCE       MOCLDY    46  36  68 SE15      30.00R
SIDNEY         CLEAR     49  34  56 S15       30.02R
WHITECLAY        N/A     41  32  70 SE13        N/A
CRESCENT LAKE    N/A     47  37  69 SE12G18     N/A
LISCO            N/A     50  35  56 E17         N/A
LEWELLEN         N/A     48  33  55 SE12        N/A
$$

...OBSERVATIONS IN SOUTHWEST NEBRASKA AND FAR NORTHEAST COLORADO...

CITY           SKY/WX    TMP DP  RH WIND       PRES   REMARKS
WRAY           FAIR      48  39  70 SE10      30.10R
HOLYOKE        FAIR      46  37  71 S15       30.07R
IMPERIAL         N/A     48  36  63 S17       30.10R
OGALLALA       CLEAR     49  36  60 S15G24    30.06R
NORTH PLATTE   CLEAR     45  31  58 SE13      30.12R
MCCOOK         CLEAR     47  33  58 S12       30.16R
LEXINGTON      CLEAR     46  34  63 SE7       30.17R
SUTHERLAND       N/A     39  32  75 E7          N/A  WCI  34
GOTHENBURG       N/A     46  35  66 SE5         N/A
$$

...OBSERVATIONS IN NORTH CENTRAL NEBRASKA...

CITY           SKY/WX    TMP DP  RH WIND       PRES   REMARKS
VALENTINE      PTCLDY    45  25  45 SE14      30.10R
THEDFORD       CLEAR     46  33  61 SE8       30.11R
AINSWORTH      CLEAR     42  27  53 SE12      30.11F
O`NEILL        CLEAR     43  22  43 SE7       30.19R
ORD            CLEAR     45  26  47 SE9       30.18R
BROKEN BOW     CLEAR     41  29  62 SE8       30.16R
BROWNLEE         N/A     48  29  47 SE15        N/A
SPRINGVIEW       N/A     44  29  55 E5          N/A
DUNNING          N/A     41  28  60 S8          N/A
BREWSTER         N/A     42  28  58 S8          N/A
ROSE             N/A     41  29  61 E10         N/A
NEWPORT          N/A     40  27  57 SE8         N/A
COMSTOCK         N/A     43  27  53 S9          N/A
CHAMBERS         N/A     37  19  47 CALM        N/A
EWING            N/A     41  24  50 CALM        N/A
$$

...SOME WEATHER OBSERVATIONS FROM AROUND THE REGION...

CITY           SKY/WX    TMP DP  RH WIND       PRES   REMARKS
DENVER         PTCLDY    48  33  56 S15       30.00R
LARAMIE        MOCLDY    43  22  43 SW14      30.02S
CHEYENNE       CLEAR     47  26  44 S7        30.01R
SCOTTSBLUFF    CLEAR     50  37  61 SE17      29.97R
RAPID CITY     PTCLDY    42  34  73 SE7       29.97R
PIERRE         CLEAR     38  25  59 SE17      30.10S WCI  28
WINNER         FAIR      37  25  61 SE16      30.12R WCI  28
SIOUX FALLS    CLOUDY    38  25  59 E8        30.27R WCI  32
OMAHA          PTCLDY    48  25  40 E3        30.27R
GRAND ISLAND   CLEAR     45  28  51 SE8       30.22R
KANSAS CITY    CLEAR     43  31  62 S6        30.28S
WICHITA        PTCLDY    43  35  73 CALM      30.27R
HAYS           CLEAR     43  28  56 S9        30.23R
LIBERAL        CLOUDY    46  37  71 E8        30.25S
GOODLAND       CLEAR     43  37  79 S16       30.14R
$$



USA.gov is the U.S. government's official web portal to all federal, state and local government web resources and services.